Weather History for Naples, FL

Change the Weather History Date:

Sunday, December 16, 2012

  Actual Average Record
Temperature  
Mean Temperature 71 °F 67 °F  
Max Temperature 81 °F 77 °F 87 °F (1971)
Min Temperature 61 °F 57 °F 30 °F (1968)
Degree Days  
Heating Degree Days 0 2  
Month to date heating degree days 0 27  
Since 1 July heating degree days 13 41  
Cooling Degree Days 6 4  
Month to date cooling degree days 114 74  
Year to date cooling degree days 4080 3893  
Growing Degree Days 21 (Base 50)    
Moisture  
Dew Point 65 °F    
Average Humidity 79    
Maximum Humidity 100    
Minimum Humidity 58    
Precipitation  
Precipitation 0.00 in 0.04 in 2.55 in (1947)
Month to date precipitation 1.65 0.75  
Year to date precipitation 37.80 51.19  
Snow  
Snow 0.00 in - - ()
Month to date snowfall 0.0  
Since 1 July snowfall 0.0  
Snow Depth 0.00 in    
Sea Level Pressure  
Sea Level Pressure 30.00 in    
Wind  
Wind Speed 5 mph (ESE)    
Max Wind Speed 13 mph    
Max Gust Speed 17 mph    
Visibility 10 miles    
Events      
T = Trace of Precipitation, MM = Missing Value Source: NWS Daily Summary

Daily Weather History Graph

Daily Weather History Graph

Search for Another Location

Airport:

Trip Planner

Search our weather history database for the weather conditions in past years. The results will help you decide how hot, cold, wet, or windy it might be!

Date:

Astronomy

Dec. 16, 2012 Rise Set
Actual Time 7:07 AM EST 5:38 PM EST
Civil Twilight 6:42 AM EST 6:03 PM EST
Nautical Twilight 6:13 AM EST 6:32 PM EST
Astronomical Twilight 5:45 AM EST 7:00 PM EST
Moon 9:56 AM EST (12/16) 9:32 PM EST (12/16)
Length of Visible Light 11h 21m
Length of Day
10h 30m
Waxing Crescent, 16% of the Moon is Illuminated
Dec 16
Waxing Crescent
Dec 20
First Quarter
Dec 28
Full
Jan 4
Last Quarter
Jan 11
New

Hourly Weather History & Observations

Time (EST) Temp. Heat Index Dew Point Humidity Pressure Visibility Wind Dir Wind Speed Gust Speed Precip Events Conditions
12:53 AM 64.0 °F - 63.0 °F 96% 30.04 in 10.0 mi ENE 4.6 mph - N/A   Clear
1:53 AM 64.0 °F - 63.0 °F 96% 30.01 in 10.0 mi ENE 5.8 mph - N/A   Clear
2:53 AM 63.0 °F - 62.1 °F 97% 30.01 in 10.0 mi ENE 4.6 mph - N/A   Clear
3:53 AM 63.0 °F - 62.1 °F 97% 30.01 in 10.0 mi NE 5.8 mph - N/A   Clear
4:53 AM 63.0 °F - 62.1 °F 97% 30.01 in 10.0 mi Calm Calm - N/A   Clear
5:53 AM 62.1 °F - 62.1 °F 100% 30.01 in 10.0 mi NE 4.6 mph - N/A   Clear
6:53 AM 62.1 °F - 62.1 °F 100% 30.03 in 10.0 mi NE 4.6 mph - N/A   Clear
8:53 AM 69.1 °F - 64.9 °F 87% 30.05 in 10.0 mi ENE 4.6 mph - N/A   Clear
9:53 AM 73.0 °F - 66.9 °F 81% 30.05 in 10.0 mi ESE 6.9 mph - N/A   Clear
10:53 AM 77.0 °F - 66.0 °F 69% 30.04 in 10.0 mi SE 8.1 mph - N/A   Clear
11:53 AM 79.0 °F - 64.9 °F 62% 30.02 in 10.0 mi SSE 5.8 mph - N/A   Scattered Clouds
12:53 PM 80.1 °F 81.9 °F 64.9 °F 60% 29.99 in 10.0 mi South 6.9 mph - N/A   Scattered Clouds
1:53 PM 80.1 °F 81.9 °F 64.9 °F 60% 29.96 in 10.0 mi SSW 9.2 mph - N/A   Partly Cloudy
2:53 PM 79.0 °F - 66.0 °F 64% 29.94 in 10.0 mi SSW 10.4 mph - N/A   Partly Cloudy
3:53 PM 78.1 °F - 66.9 °F 68% 29.96 in 10.0 mi SSW 10.4 mph - N/A   Scattered Clouds
5:53 PM 73.9 °F - 68.0 °F 82% 29.96 in 10.0 mi SW 3.5 mph - N/A   Overcast
6:53 PM 73.0 °F - 68.0 °F 84% 29.96 in 10.0 mi Calm Calm - N/A   Overcast
7:53 PM 73.0 °F - - N/A% 29.97 in 10.0 mi Calm Calm - N/A   Partly Cloudy
8:53 PM 70.0 °F - 66.9 °F 90% 29.97 in 10.0 mi Calm Calm - N/A   Mostly Cloudy
9:53 PM 70.0 °F - 66.9 °F 90% 29.98 in 10.0 mi Calm Calm - N/A   Clear
10:53 PM 69.1 °F - 66.9 °F 93% 29.99 in 10.0 mi Calm Calm - N/A   Clear
11:53 PM 66.9 °F - 66.9 °F 100% 29.99 in 10.0 mi Calm Calm - N/A   Clear